Weather History for PAOR - November, 2013

Change the Weather History Date:

Wednesday, November 13, 2013

  Actual Average Record
Temperature  
Mean Temperature 4 °F -  
Max Temperature 15 °F 3 °F 30 °F (2004)
Min Temperature -6 °F -12 °F -54 °F (1989)
Degree Days  
Heating Degree Days 60    
Moisture  
Dew Point 3 °F    
Average Humidity 81    
Maximum Humidity 84    
Minimum Humidity 77    
Precipitation  
Precipitation 0.00 in - - ()
Snow  
Snow 0.00 in - - ()
Snow Depth 10.00 in    
Sea Level Pressure  
Sea Level Pressure 30.13 in    
Wind  
Wind Speed 8 mph (ESE)    
Max Wind Speed 12 mph    
Max Gust Speed -    
Visibility 10 miles    
Events      
Averages and records for this station are not official NWS values.
T = Trace of Precipitation, MM = Missing Value Source: NWS Daily Summary

Daily Weather History Graph

Daily Weather History Graph

Search for Another Location

Airport or City:

Trip Planner

Search our weather history database for the weather conditions in past years. The results will help you decide how hot, cold, wet, or windy it might be!

Date:

Astronomy

Nov. 13, 2013 Rise Set
Actual Time 8:41 AM AKST 3:41 PM AKST
Civil Twilight 7:46 AM AKST 4:37 PM AKST
Nautical Twilight 6:48 AM AKST 5:34 PM AKST
Astronomical Twilight 5:54 AM AKST 6:28 PM AKST
Moon 2:38 PM AKST (11/13) 3:30 AM AKST (11/13)
Length of Visible Light 8h 50m
Length of Day
6h 59m
Waxing Gibbous, 86% of the Moon is Illuminated
Nov 13
Waxing Gibbous
Nov 17
Full
Nov 25
Last Quarter
Dec 2
New
Dec 9
First Quarter

Hourly Weather History & Observations

Time (AKST) Temp. Windchill Dew Point Humidity Pressure Visibility Wind Dir Wind Speed Gust Speed Precip Events Conditions
12:53 AM -6.0 °F -16.9 °F -9.9 °F 83% 30.27 in 10.0 mi SSE 4.6 mph - N/A   Scattered Clouds
1:53 AM -2.9 °F -18.8 °F -7.1 °F 82% 30.24 in 10.0 mi SE 9.2 mph - N/A   Scattered Clouds
3:53 AM -0.9 °F -14.1 °F -5.1 °F 83% 30.22 in 10.0 mi SE 6.9 mph - N/A   Mostly Cloudy
4:53 AM -0.0 °F -15.3 °F -4.0 °F 83% 30.22 in 10.0 mi SE 9.2 mph - N/A   Overcast
5:53 AM 1.9 °F -11.8 °F -2.9 °F 80% 30.22 in 10.0 mi SE 8.1 mph - N/A   Overcast
6:53 AM 1.9 °F -7.6 °F -2.0 °F 83% 30.22 in 10.0 mi SE 4.6 mph - N/A   Overcast
7:53 AM 1.9 °F -10.6 °F -2.0 °F 83% 30.22 in 10.0 mi ESE 6.9 mph - N/A   Mostly Cloudy
8:53 AM 3.9 °F -9.4 °F -0.9 °F 80% 30.22 in 10.0 mi ESE 8.1 mph - N/A   Mostly Cloudy
9:53 AM 6.1 °F -8.7 °F 1.0 °F 80% 30.22 in 10.0 mi ESE 10.4 mph - N/A   Mostly Cloudy
10:53 AM 7.0 °F -7.5 °F 1.9 °F 80% 30.20 in 10.0 mi ESE 10.4 mph - N/A   Mostly Cloudy
11:53 AM 9.0 °F -3.2 °F 3.9 °F 80% 30.20 in 10.0 mi ESE 8.1 mph - N/A   Mostly Cloudy
12:53 PM 10.0 °F -3.7 °F 5.0 °F 80% 30.18 in 10.0 mi ESE 10.4 mph - N/A   Mostly Cloudy
1:53 PM 10.9 °F -0.8 °F 6.1 °F 81% 30.15 in 10.0 mi ESE 8.1 mph - N/A   Mostly Cloudy
2:53 PM 12.0 °F -0.4 °F 8.1 °F 84% 30.12 in 10.0 mi East 9.2 mph - N/A   Mostly Cloudy
3:53 PM 12.9 °F 1.6 °F 9.0 °F 84% 30.10 in 10.0 mi ESE 8.1 mph - N/A   Mostly Cloudy
4:53 PM 14.0 °F 2.9 °F 9.0 °F 80% 30.07 in 10.0 mi ESE 8.1 mph - N/A   Mostly Cloudy
5:53 PM 14.0 °F 2.0 °F 9.0 °F 80% 30.05 in 10.0 mi ESE 9.2 mph - N/A   Mostly Cloudy
6:53 PM 15.1 °F 1.8 °F 9.0 °F 77% 30.02 in 10.0 mi ESE 11.5 mph - N/A   Mostly Cloudy
7:53 PM 15.1 °F 2.5 °F 10.0 °F 80% 29.99 in 10.0 mi East 10.4 mph - N/A   Overcast
8:53 PM 14.0 °F 2.9 °F 10.0 °F 84% 29.96 in 10.0 mi ESE 8.1 mph - N/A   Overcast
9:53 PM 14.0 °F 2.0 °F 10.0 °F 84% 29.95 in 10.0 mi East 9.2 mph - N/A   Mostly Cloudy
10:53 PM 14.0 °F 5.1 °F 9.0 °F 80% 29.93 in 10.0 mi SE 5.8 mph - N/A   Scattered Clouds
11:53 PM 15.1 °F 4.2 °F 10.0 °F 80% 29.91 in 10.0 mi ESE 8.1 mph - N/A   Mostly Cloudy